ARU659 TNCC-TNCA

Flight info

Callsign ARU659
Flight time 0h 23m
Altitude 13000
Route ARUB1K ELUMO DCT DAVLA DCT BOMDA
Aircraft B461/M-SDFGIRWY/LB1

Departure

Time 2026-04-29 21:37
Airport Hato International Airport (TNCC)

Arrival

Time 2026-04-29 22:00
Airport Queen Beatrix International Airport (TNCA)
Time Latitude Longitude Altitude Speed Heading
2026-04-29 21:15 12.18676 -68.96103 42 ft 0 kts 182°
2026-04-29 21:16 12.18832 -68.96946 40 ft 0 kts 192°
2026-04-29 21:24 12.18833 -68.96946 40 ft 0 kts 192°
2026-04-29 21:33 12.18830 -68.96946 40 ft 2 kts 190°
2026-04-29 21:33 12.18795 -68.96951 40 ft 6 kts 205°
2026-04-29 21:33 12.18784 -68.97004 40 ft 11 kts 293°
2026-04-29 21:33 12.18856 -68.97026 40 ft 14 kts 15°
2026-04-29 21:34 12.18932 -68.97016 40 ft 7 kts 298°
2026-04-29 21:34 12.18939 -68.97073 40 ft 11 kts 282°
2026-04-29 21:34 12.18958 -68.97162 40 ft 15 kts 282°
2026-04-29 21:34 12.18983 -68.97282 39 ft 18 kts 282°
2026-04-29 21:35 12.19008 -68.97398 39 ft 16 kts 282°
2026-04-29 21:35 12.19031 -68.97505 39 ft 15 kts 282°
2026-04-29 21:35 12.19072 -68.97588 39 ft 13 kts 347°
2026-04-29 21:35 12.19162 -68.97578 39 ft 12 kts 14°
2026-04-29 21:36 12.19218 -68.97537 39 ft 8 kts 72°
2026-04-29 21:36 12.19215 -68.97490 39 ft 5 kts 101°
2026-04-29 21:36 12.19188 -68.97350 40 ft 57 kts 102°
2026-04-29 21:36 12.19040 -68.96668 116 ft 128 kts 101°
2026-04-29 21:37 12.18823 -68.95656 682 ft 159 kts 105°
2026-04-29 21:37 12.18471 -68.94441 1058 ft 197 kts 106°
2026-04-29 21:37 12.17987 -68.93010 1423 ft 232 kts 108°
2026-04-29 21:37 12.17366 -68.91298 1653 ft 276 kts 108°
2026-04-29 21:38 12.16660 -68.89417 1921 ft 287 kts 109°
2026-04-29 21:38 12.15859 -68.87526 2306 ft 293 kts 118°
2026-04-29 21:38 12.14348 -68.86113 2658 ft 306 kts 152°
2026-04-29 21:38 12.12262 -68.85764 3081 ft 316 kts 183°
2026-04-29 21:39 12.10199 -68.86539 3516 ft 323 kts 213°
2026-04-29 21:39 12.08728 -68.88265 3961 ft 325 kts 242°
2026-04-29 21:39 12.08221 -68.90506 4404 ft 328 kts 270°
2026-04-29 21:39 12.08672 -68.92768 4849 ft 326 kts 284°
2026-04-29 21:40 12.08747 -68.95078 5225 ft 322 kts 252°
2026-04-29 21:40 12.07740 -68.97084 5631 ft 316 kts 234°
2026-04-29 21:40 12.06928 -68.99158 5996 ft 322 kts 264°
2026-04-29 21:40 12.07374 -69.01387 6413 ft 323 kts 298°
2026-04-29 21:41 12.08840 -69.03070 6933 ft 316 kts 324°
2026-04-29 21:41 12.10438 -69.04569 7431 ft 314 kts 303°
2026-04-29 21:41 12.11109 -69.06632 7893 ft 311 kts 275°
2026-04-29 21:41 12.11343 -69.08816 8425 ft 309 kts 279°
2026-04-29 21:42 12.11804 -69.10960 8932 ft 308 kts 284°
2026-04-29 21:42 12.12324 -69.13080 9437 ft 307 kts 285°
2026-04-29 21:42 12.12898 -69.15178 9915 ft 306 kts 286°
2026-04-29 21:42 12.13479 -69.17274 10363 ft 306 kts 285°
2026-04-29 21:43 12.14013 -69.19384 10808 ft 306 kts 284°
2026-04-29 21:43 12.14561 -69.21491 11264 ft 307 kts 285°
2026-04-29 21:43 12.15143 -69.23602 11724 ft 308 kts 285°
2026-04-29 21:43 12.15686 -69.25727 12188 ft 310 kts 283°
2026-04-29 21:44 12.16234 -69.27867 12593 ft 314 kts 285°
2026-04-29 21:44 12.16825 -69.30026 12802 ft 325 kts 285°
2026-04-29 21:44 12.17447 -69.32299 12843 ft 339 kts 284°
2026-04-29 21:44 12.18035 -69.34679 12864 ft 351 kts 284°
2026-04-29 21:45 12.18685 -69.37123 12875 ft 362 kts 285°
2026-04-29 21:45 12.19382 -69.39632 12874 ft 371 kts 285°
2026-04-29 21:45 12.20037 -69.42220 12876 ft 380 kts 283°
2026-04-29 21:45 12.20711 -69.44861 12874 ft 389 kts 285°
2026-04-29 21:46 12.21454 -69.47549 12875 ft 393 kts 285°
2026-04-29 21:46 12.22155 -69.50164 12861 ft 372 kts 283°
2026-04-29 21:46 12.22778 -69.52696 12855 ft 362 kts 284°
2026-04-29 21:46 12.23445 -69.55147 12849 ft 354 kts 285°
2026-04-29 21:47 12.24106 -69.57549 12844 ft 347 kts 284°
2026-04-29 21:47 12.24685 -69.59895 12849 ft 342 kts 283°
2026-04-29 21:47 12.25273 -69.62228 12850 ft 337 kts 285°
2026-04-29 21:47 12.25906 -69.64525 12852 ft 333 kts 285°
2026-04-29 21:48 12.26517 -69.66802 12760 ft 332 kts 284°
2026-04-29 21:48 12.27184 -69.69055 12314 ft 331 kts 289°
2026-04-29 21:48 12.28001 -69.71248 11907 ft 329 kts 290°
2026-04-29 21:48 12.28726 -69.73459 11528 ft 327 kts 286°
2026-04-29 21:49 12.29384 -69.75677 11144 ft 325 kts 287°
2026-04-29 21:49 12.30101 -69.77861 10668 ft 324 kts 289°
2026-04-29 21:49 12.30845 -69.80023 10185 ft 321 kts 289°
2026-04-29 21:49 12.31563 -69.82182 9690 ft 319 kts 288°
2026-04-29 21:50 12.32227 -69.84342 9161 ft 317 kts 288°
2026-04-29 21:50 12.32928 -69.86444 8685 ft 315 kts 289°
2026-04-29 21:50 12.33638 -69.88552 8211 ft 312 kts 288°
2026-04-29 21:50 12.34284 -69.90664 7704 ft 311 kts 288°
2026-04-29 21:51 12.34976 -69.92756 7242 ft 309 kts 289°
2026-04-29 21:51 12.35684 -69.94822 6799 ft 307 kts 288°
2026-04-29 21:51 12.36986 -69.98964 5889 ft 303 kts 289°
2026-04-29 21:52 12.37673 -70.00978 5447 ft 302 kts 289°
2026-04-29 21:52 12.38341 -70.02996 5059 ft 298 kts 287°
2026-04-29 21:52 12.38958 -70.05019 4597 ft 298 kts 288°
2026-04-29 21:52 12.39629 -70.07048 4974 ft 299 kts 289°
2026-04-29 21:53 12.40309 -70.09054 5143 ft 297 kts 289°
2026-04-29 21:53 12.40947 -70.11082 4829 ft 299 kts 287°
2026-04-29 21:53 12.41592 -70.13100 4649 ft 297 kts 289°
2026-04-29 21:53 12.42268 -70.15102 4434 ft 297 kts 289°
2026-04-29 21:54 12.42909 -70.17087 4196 ft 297 kts 287°
2026-04-29 21:54 12.43527 -70.19096 4019 ft 294 kts 289°
2026-04-29 21:54 12.44181 -70.21077 3804 ft 293 kts 290°
2026-04-29 21:54 12.45198 -70.22855 3565 ft 289 kts 319°
2026-04-29 21:55 12.46922 -70.23778 3400 ft 277 kts 353°
2026-04-29 21:55 12.48797 -70.23668 3176 ft 268 kts 18°
2026-04-29 21:55 12.50602 -70.23191 2983 ft 268 kts 18°
2026-04-29 21:55 12.52396 -70.22720 2845 ft 265 kts 20°
2026-04-29 21:56 12.53940 -70.21796 2640 ft 256 kts 53°
2026-04-29 21:56 12.54588 -70.20164 2465 ft 250 kts 88°
2026-04-29 21:56 12.54232 -70.18437 2223 ft 249 kts 107°
2026-04-29 21:56 12.53751 -70.16737 2015 ft 247 kts 102°
2026-04-29 21:57 12.53368 -70.15023 1743 ft 247 kts 101°
2026-04-29 21:57 12.52974 -70.13316 1340 ft 244 kts 102°
2026-04-29 21:57 12.52558 -70.11681 1165 ft 233 kts 103°
2026-04-29 21:57 12.52151 -70.10183 915 ft 199 kts 103°
2026-04-29 21:58 12.51792 -70.08912 711 ft 174 kts 103°
2026-04-29 21:58 12.51515 -70.07800 665 ft 148 kts 101°
2026-04-29 21:58 12.51320 -70.06855 666 ft 125 kts 98°
2026-04-29 21:58 12.51129 -70.06027 465 ft 117 kts 99°
2026-04-29 21:59 12.50954 -70.05237 474 ft 117 kts 96°
2026-04-29 21:59 12.50790 -70.04367 510 ft 130 kts 96°
2026-04-29 21:59 12.50598 -70.03435 252 ft 139 kts 99°
2026-04-29 21:59 12.50372 -70.02517 61 ft 121 kts 100°
2026-04-29 22:00 12.50187 -70.01759 43 ft 99 kts 98°
2026-04-29 22:00 12.50059 -70.01186 53 ft 57 kts 104°
2026-04-29 22:00 12.50062 -70.01018 55 ft 9 kts 23°
2026-04-29 22:00 12.50083 -70.01014 56 ft 0 kts 11°
2026-04-29 22:01 12.50082 -70.01014 56 ft 0 kts 11°